Location: Charbonni�res
(45.9083°N, 2.9984°E)
Time: 13:52:05
(UTC+00:00)

Daily predictions for brighter satellites

Satellite Brightness Start Highest point End
(mag) Time Altitude Azimuth Time Altitude Azimuth Time Altitude Azimuth
ATLAS 3B R/B 4.3 20:02:14 10° NNW 20:07:41 25° NNE 20:13:15 10° E
STARLINK-1102 3.7 20:05:16 10° WNW 20:09:24 72° SW 20:13:31 10° SE
CZ-2C R/B 2.9 20:04:11 10° NNE 20:09:51 89° W 20:15:27 10° SSW
NOSS 2-2 (D) 3.1 20:06:53 10° SSW 20:10:23 61° SE 20:14:14 10° NE
Aureole 2 Rocket 2.2 20:07:59 10° SSW 20:11:01 77° WNW 20:13:56 10° NNE
Cosmos 1331 Rocket 4.1 20:07:12 10° S 20:12:12 53° ESE 20:17:15 10° NNE
STARLINK-1111 3.8 20:10:16 10° WNW 20:14:23 66° SW 20:18:29 10° SE
STARLINK-52 4.2 20:15:19 10° S 20:17:50 21° SE 20:20:21 10° E
Okean 2 Rocket 4.0 20:14:48 10° NNW 20:19:04 49° W 20:23:17 10° SSW
STARLINK-1073 3.9 20:15:14 10° WNW 20:19:20 61° SW 20:23:25 10° SE
SL-4 R/B 2.6 20:15:36 10° SW 20:20:04 47° SE 20:24:43 10° ENE
Cosmos 1943 Rocket 2.6 20:15:03 10° S 20:20:12 42° ESE 20:25:27 10° NE
SPOT 3 Rocket 4.1 20:16:53 10° S 20:21:57 59° WSW 20:27:05 10° NNW
Terra 3.7 20:20:32 10° ESE 20:23:40 18° ENE 20:26:49 10° NNE
STARLINK-1121 4.0 20:20:12 10° WNW 20:24:17 56° SW 20:28:16 10° SE
Nadezhda 4 Rocket 4.1 20:19:36 10° SSE 20:25:33 56° E 20:31:31 10° NNE
SPOT 1/Viking Rocket 4.2 20:21:24 10° SE 20:26:10 40° ENE 20:30:57 10° N
NOSS 2-2 (E) 3.5 20:23:11 10° SW 20:26:44 73° NW 20:30:47 10° NE
IGS 5A 4.1 20:23:01 10° SE 20:26:55 41° ENE 20:30:50 10° N
Cosmos 304 Rocket 4.0 20:22:35 10° SSW 20:27:21 74° WNW 20:32:11 10° NNE
STARLINK-1106 4.1 20:25:14 10° WNW 20:29:16 52° SW 20:33:05 11° SE
Resurs 01 Rocket 1.9 20:25:54 10° S 20:30:20 71° WSW 20:34:48 10° NNW
NOSS 3-4 (A) 4.4 20:25:47 10° SSE 20:30:21 24° ESE 20:35:07 10° ENE
USA 245 3.1 20:28:14 12° SE 20:30:26 33° ENE 20:32:38 10° N
NOSS 3-4 (C) 4.4 20:25:55 10° SSE 20:30:29 23° ESE 20:35:12 10° ENE
ATLAS CENTAUR R/B 3.1 20:28:30 10° SSE 20:31:00 15° ESE 20:33:27 10° ENE
Cosmos 1437 Rocket 3.4 20:28:50 10° SSW 20:32:34 58° WNW 20:36:23 10° N
Okean 2 4.4 20:30:01 10° SSE 20:33:37 29° E 20:37:14 10° NNE
STARLINK-1235 4.0 20:30:27 10° NW 20:33:41 43° NNE 20:36:54 10° E
SL-27 R/B 3.6 20:30:31 10° N 20:33:44 31° ENE 20:36:32 12° SE
STARLINK-1112 4.2 20:30:14 10° WNW 20:34:14 48° SW 20:37:52 12° SSE
STARLINK-1128 4.3 20:35:13 10° WNW 20:39:10 44° SW 20:42:38 13° SSE
Cosmos 2297 4.3 20:37:56 10° SW 20:43:35 63° WNW 20:49:18 10° NNE
STARLINK-1113 4.4 20:40:15 10° WNW 20:44:09 40° SW 20:47:26 14° SSE
Cosmos 2082 Rocket 4.0 20:40:23 10° NW 20:45:07 27° WSW 20:49:48 10° SSW
STARLINK-60 2.9 20:43:06 10° WSW 20:46:15 90° SW 20:49:26 10° ENE
Cosmos 1242 Rocket 4.0 20:48:44 15° SE 20:50:37 22° E 20:53:30 10° NE
BREEZE-M DEB 2.4 20:49:25 10° SW 20:51:39 55° SSE 20:56:18 10° ENE
Cosmos 2369 Rocket 2.3 20:46:11 10° S 20:51:40 54° ESE 20:57:10 10° NE
Cosmos 1766 3.4 20:48:23 10° N 20:52:22 64° E 20:55:36 15° SSE
NOSS 2-2 (C) 4.1 20:48:57 10° SW 20:52:25 51° NW 20:56:22 10° NNE
Abrixas rocket 4.3 20:51:09 10° WSW 20:52:46 14° SW 20:54:17 10° S
Cosmos 1674 Rocket 4.5 20:48:48 10° SSW 20:53:04 50° WNW 20:57:24 10° N
Cosmos 1378 Rocket 4.0 20:48:57 10° SSW 20:53:18 65° W 20:57:39 10° N
ATLAS 3B CENTAUR R/B 4.4 20:39:00 10° WSW 20:53:28 32° SSW 21:00:02 14° SE
MetOp-B 4.4 20:49:42 10° S 20:55:02 72° WSW 21:00:24 10° NNW
ATLAS 2AS CENTAUR R/B 3.3 20:50:29 10° S 20:57:57 47° ESE 21:05:27 10° NE
NOSS 3-2 (A) 4.2 20:51:54 10° NW 20:59:28 81° SW 21:06:43 15° SSE
STARLINK-1212 3.5 20:57:05 10° NW 21:00:09 52° NNE 21:02:33 15° E
STARLINK-1105 3.5 20:57:35 10° NW 21:00:39 52° NNE 21:03:01 15° E
STARLINK-1247 3.4 20:58:25 10° NW 21:01:30 53° NNE 21:03:52 15° ESE
STARLINK-1227 3.4 20:58:55 10° NW 21:01:59 53° NNE 21:04:18 16° ESE
Cosmos 292 Rocket 4.1 20:57:31 10° S 21:02:09 47° ESE 21:06:49 10° NNE
STARLINK-1226 3.4 20:59:57 10° NW 21:03:01 54° NNE 21:05:20 16° ESE
ERS-1 Rocket 3.1 20:59:14 16° SSE 21:03:14 61° ENE 21:08:13 10° N
STARLINK-1215 3.4 21:00:41 10° NW 21:03:46 55° NNE 21:06:03 16° ESE
STARLINK-1229 3.3 21:01:30 10° NW 21:04:27 54° NNE 21:06:32 17° ESE
STARLINK-1270 3.3 21:02:20 10° NW 21:05:16 55° NNE 21:07:19 18° ESE
STARLINK-1209 2.9 21:02:18 10° WNW 21:05:25 74° NNE 21:07:22 20° ESE
BREEZE-M DEB (TANK) 4.0 20:50:18 10° WNW 21:05:29 81° SSW 21:09:24 16° SE
STARLINK-1217 3.3 21:02:32 10° NW 21:05:38 57° NNE 21:07:50 17° ESE
STARLINK-1189 3.2 21:04:37 10° NW 21:07:36 57° NNE 21:09:34 19° ESE
STARLINK-1188 3.2 21:06:00 10° NW 21:09:01 59° NNE 21:10:59 19° ESE
Cosmos 1867 4.1 21:05:30 10° NNW 21:10:52 52° NE 21:15:01 16° ESE
STARLINK-1191 3.1 21:09:14 10° NW 21:12:18 63° NNE 21:14:11 21° ESE
STARLINK-1444 2.3 21:10:59 10° WSW 21:12:56 58° NNW 21:14:56 10° NE
STARLINK-1452 2.3 21:11:01 10° WSW 21:12:57 57° NNW 21:14:55 10° NE
STARLINK-1221 3.1 21:10:13 10° NW 21:13:17 64° NNE 21:15:08 21° ESE
USA 238 DEB 4.0 21:06:41 10° NW 21:13:51 68° WSW 21:19:44 17° SSE
USA 238 4.0 21:06:47 10° NW 21:13:57 68° WSW 21:19:50 17° SSE
STARLINK-1222 3.1 21:11:14 10° NW 21:14:19 66° NNE 21:16:07 22° ESE
Cosmos 968 Rocket 3.7 21:09:17 10° NNW 21:14:22 58° ENE 21:17:48 20° SE
STARLINK-1436 (VISORSAT) 2.4 21:12:46 10° WSW 21:14:42 54° NNW 21:16:40 10° NE
STARLINK-1450 2.4 21:12:51 10° WSW 21:14:48 54° NNW 21:16:46 10° NE
STARLINK-1392 2.4 21:12:57 10° WSW 21:14:53 54° NNW 21:16:52 10° NE
STARLINK-1398 2.4 21:12:57 10° WSW 21:14:53 54° NNW 21:16:52 10° NE
STARLINK-1399 2.4 21:12:57 10° WSW 21:14:54 54° NNW 21:16:52 10° NE
STARLINK-1393 2.4 21:12:58 10° WSW 21:14:54 54° NNW 21:16:53 10° NE
STARLINK-1395 2.4 21:12:58 10° WSW 21:14:54 54° NNW 21:16:53 10° NE
STARLINK-1394 2.4 21:12:58 10° WSW 21:14:55 54° NNW 21:16:53 10° NE
STARLINK-1415 2.4 21:12:58 10° WSW 21:14:55 54° NNW 21:16:53 10° NE
STARLINK-1414 2.4 21:12:59 10° WSW 21:14:55 54° NNW 21:16:53 10° NE
STARLINK-1396 2.4 21:12:59 10° WSW 21:14:56 54° NNW 21:16:54 10° NE
STARLINK-1401 2.4 21:13:00 10° WSW 21:14:56 54° NNW 21:16:55 10° NE
STARLINK-1397 2.4 21:12:59 10° WSW 21:14:56 54° NNW 21:16:54 10° NE
STARLINK-1416 2.4 21:12:59 10° WSW 21:14:56 54° NNW 21:16:54 10° NE
STARLINK-1404 2.4 21:12:59 10° WSW 21:14:56 54° NNW 21:16:54 10° NE
STARLINK-1419 2.4 21:13:00 10° WSW 21:14:56 54° NNW 21:16:55 10° NE
STARLINK-1408 2.4 21:13:00 10° WSW 21:14:57 54° NNW 21:16:55 10° NE
STARLINK-1453 2.4 21:13:01 10° WSW 21:14:57 54° NNW 21:16:56 10° NE
STARLINK-1437 2.4 21:13:01 10° WSW 21:14:57 54° NNW 21:16:56 10° NE
STARLINK-1417 2.4 21:13:01 10° WSW 21:14:58 54° NNW 21:16:56 10° NE
STARLINK-1402 2.4 21:13:01 10° WSW 21:14:58 54° NNW 21:16:56 10° NE
STARLINK-1420 2.4 21:13:02 10° WSW 21:14:58 54° NNW 21:16:57 10° NE
STARLINK-1422 2.4 21:13:03 10° WSW 21:14:59 54° NNW 21:16:58 10° NE
STARLINK-1406 2.4 21:13:03 10° WSW 21:14:59 54° NNW 21:16:58 10° NE
STARLINK-1460 2.4 21:13:03 10° WSW 21:14:59 54° NNW 21:16:58 10° NE
STARLINK-1458 2.4 21:13:03 10° WSW 21:14:59 54° NNW 21:16:58 10° NE
STARLINK-1413 2.4 21:13:03 10° WSW 21:14:59 54° NNW 21:16:58 10° NE
STARLINK-1440 2.4 21:13:04 10° WSW 21:15:01 54° NNW 21:16:59 10° NE
STARLINK-1445 2.4 21:13:04 10° WSW 21:15:01 54° NNW 21:16:59 10° NE
STARLINK-1443 2.4 21:13:05 10° WSW 21:15:02 54° NNW 21:17:00 10° NE
STARLINK-1446 2.4 21:13:06 10° WSW 21:15:03 54° NNW 21:17:00 10° NE
STARLINK-1457 2.4 21:13:07 10° WSW 21:15:03 54° NNW 21:17:01 10° NE
STARLINK-1454 2.4 21:13:06 10° WSW 21:15:03 54° NNW 21:17:01 10° NE
STARLINK-1456 2.4 21:13:07 10° WSW 21:15:04 54° NNW 21:17:02 10° NE
STARLINK-1451 2.4 21:13:07 10° WSW 21:15:04 54° NNW 21:17:02 10° NE
STARLINK-1447 2.4 21:13:08 10° WSW 21:15:05 54° NNW 21:17:03 10° NE
STARLINK-1455 2.4 21:13:08 10° WSW 21:15:05 54° NNW 21:17:03 10° NE
STARLINK-1442 2.4 21:13:09 10° WSW 21:15:05 54° NNW 21:17:03 10° NE
STARLINK-1449 2.4 21:13:09 10° WSW 21:15:05 54° NNW 21:17:04 10° NE
STARLINK-1448 2.4 21:13:09 10° WSW 21:15:06 54° NNW 21:17:04 10° NE
STARLINK-1441 2.5 21:13:09 10° WSW 21:15:06 54° NNW 21:17:04 10° NE
STARLINK-1405 2.5 21:13:10 10° WSW 21:15:07 54° NNW 21:17:05 10° NE
STARLINK-1423 2.5 21:13:11 10° WSW 21:15:07 54° NNW 21:17:05 10° NE
STARLINK-1421 2.5 21:13:11 10° WSW 21:15:07 54° NNW 21:17:05 10° NE
STARLINK-1410 2.5 21:13:11 10° WSW 21:15:07 54° NNW 21:17:06 10° NE
STARLINK-1407 2.5 21:13:11 10° WSW 21:15:08 54° NNW 21:17:06 10° NE
STARLINK-1400 2.5 21:13:11 10° WSW 21:15:08 54° NNW 21:17:06 10° NE
STARLINK-1439 2.5 21:13:12 10° WSW 21:15:08 54° NNW 21:17:07 10° NE
STARLINK-1409 2.5 21:13:13 10° WSW 21:15:09 54° NNW 21:17:07 10° NE
STARLINK-1351 2.5 21:13:13 10° WSW 21:15:09 54° NNW 21:17:07 10° NE
STARLINK-1434 2.5 21:13:13 10° WSW 21:15:10 54° NNW 21:17:08 10° NE
STARLINK-1418 2.5 21:13:13 10° WSW 21:15:10 54° NNW 21:17:08 10° NE
STARLINK-1370 2.5 21:13:13 10° WSW 21:15:10 54° NNW 21:17:08 10° NE
STARLINK-1403 2.5 21:13:15 10° WSW 21:15:11 54° NNW 21:17:09 10° NE
STARLINK-1433 2.5 21:13:15 10° WSW 21:15:11 54° NNW 21:17:10 10° NE
STARLINK-1411 2.5 21:13:17 10° WSW 21:15:13 54° NNW 21:17:11 10° NE
STARLINK-1438 2.5 21:13:17 10° WSW 21:15:13 54° NNW 21:17:12 10° NE
STARLINK-1412 2.5 21:13:17 10° WSW 21:15:13 54° NNW 21:17:12 10° NE
Cosmos 1092 Rocket 3.9 21:09:16 10° S 21:15:23 84° E 21:21:35 10° N
STARLINK-1214 3.0 21:12:23 10° NW 21:15:28 67° NNE 21:17:14 23° ESE
Landsat 7 4.2 21:11:34 13° S 21:15:45 63° WSW 21:20:30 10° NNW
Cosmos 1975 Rocket 3.0 21:14:15 13° S 21:18:09 80° E 21:22:33 10° N
STARLINK-29 2.8 21:15:01 10° SW 21:18:15 85° SE 21:21:28 10° ENE
Cosmos 1025 Rocket 4.1 21:17:47 21° SE 21:19:34 28° E 21:23:16 10° NNE
STARLINK-1234 3.0 21:16:08 10° WNW 21:19:36 90° S 21:21:28 25° ESE
STARLINK-1228 3.1 21:17:01 10° WNW 21:20:35 88° SSW 21:22:31 25° ESE
STARLINK-1339 4.4 21:23:42 25° SE 21:23:42 25° SE 21:26:50 10° ENE
Cosmos 1378 4.3 21:20:17 10° SSW 21:23:49 42° WNW 21:27:22 10° N
COSMOS 2455 3.4 21:21:21 16° S 21:25:33 38° ESE 21:31:04 10° NE
Cosmos 1805 4.2 21:22:13 10° NNW 21:25:57 43° W 21:29:06 14° SSW
Cosmos 2195 Rocket 4.5 21:19:56 10° S 21:26:14 87° E 21:32:31 10° N
BREEZE-M DEB (TANK) 4.1 21:08:45 10° WSW 21:27:29 87° NNW 21:31:51 10° ENE
STARLINK-1377 4.3 21:28:58 27° SSE 21:29:32 29° SE 21:32:58 10° ENE
STARLINK-1187 2.8 21:26:20 10° WNW 21:29:33 84° SSW 21:30:51 33° SE
Cosmos 1470 3.0 21:27:19 10° N 21:31:07 53° ENE 21:32:50 28° SE
STARLINK-1353 4.2 21:32:53 28° SSE 21:33:38 31° SE 21:37:08 10° ENE
Cosmos 1726 3.7 21:32:55 10° NNE 21:35:59 23° ENE 21:37:13 20° ESE
STARLINK-1375 4.1 21:35:42 31° SSE 21:36:11 32° SE 21:39:39 10° ENE
Cosmos 1340 Rocket 4.3 21:33:07 10° NNE 21:36:35 26° ENE 21:38:13 20° ESE
BREEZE-M DEB (TANK) 4.4 21:21:25 10° WNW 21:38:17 87° NNE 21:41:50 17° ESE
STARLINK-1197 4.4 21:34:28 10° NW 21:38:30 48° NNE 21:41:53 14° E
STARLINK-1320 4.0 21:39:32 28° E 21:39:32 28° E 21:41:26 10° ENE
STARLINK-1322 4.0 21:39:49 28° E 21:39:49 28° E 21:41:44 10° ENE
STARLINK-1324 4.0 21:40:12 28° E 21:40:12 28° E 21:42:07 10° ENE
STARLINK-1294 4.0 21:40:31 28° E 21:40:31 28° E 21:42:24 10° ENE
STARLINK-1261 3.9 21:40:49 29° E 21:40:49 29° E 21:42:47 10° ENE
STARLINK-1325 3.9 21:41:09 29° E 21:41:09 29° E 21:43:07 10° ENE
STARLINK-1333 3.9 21:41:30 30° E 21:41:30 30° E 21:43:28 10° ENE
Cosmos 1733 4.1 21:37:07 10° NNW 21:40:43 42° W 21:43:09 18° SSW
STARLINK-1334 3.9 21:41:50 30° E 21:41:50 30° E 21:43:48 10° ENE
STARLINK-1326 3.9 21:42:09 30° E 21:42:09 30° E 21:44:09 10° ENE
STARLINK-1323 3.8 21:42:27 30° E 21:42:27 30° E 21:44:29 10° ENE
STARLINK-1349 3.8 21:42:47 31° E 21:42:47 31° E 21:44:49 10° ENE
STARLINK-1350 4.0 21:40:46 29° S 21:41:52 36° SE 21:45:30 10° ENE
STARLINK-1336 3.8 21:43:06 31° E 21:43:06 31° E 21:45:09 10° ENE
STARLINK-1331 3.8 21:43:27 31° E 21:43:27 31° E 21:45:31 10° ENE
Cosmos 1842 3.7 21:39:48 16° SSW 21:42:49 59° W 21:46:41 10° N
STARLINK-1344 3.8 21:43:45 32° E 21:43:45 32° E 21:45:51 10° ENE
STARLINK-1343 3.7 21:44:05 32° E 21:44:05 32° E 21:46:11 10° ENE
STARLINK-1198 4.3 21:39:28 10° NW 21:43:31 51° NNE 21:46:41 16° E
STARLINK-1346 3.6 21:44:17 34° ESE 21:44:17 34° ESE 21:46:32 10° ENE
STARLINK-1328 3.7 21:44:42 33° E 21:44:42 33° E 21:46:50 10° ENE
STARLINK-1354 3.7 21:45:04 33° E 21:45:04 33° E 21:47:13 10° ENE
STARLINK-1347 3.7 21:45:23 33° E 21:45:23 33° E 21:47:32 10° ENE
STARLINK-1357 3.7 21:45:44 34° E 21:45:44 34° E 21:47:54 10° ENE
RESURS DK-1 3.8 21:45:05 22° ESE 21:45:06 22° ESE 21:48:17 10° NE
STARLINK-1335 3.6 21:46:00 34° E 21:46:00 34° E 21:48:11 10° ENE
STARLINK-1327 3.6 21:46:23 34° E 21:46:23 34° E 21:48:34 10° ENE
STARLINK-1340 3.6 21:46:43 35° E 21:46:43 35° E 21:48:55 10° ENE
STARLINK-1352 3.9 21:44:45 29° S 21:46:04 38° SE 21:49:44 10° ENE
STARLINK-1356 3.6 21:47:02 35° E 21:47:02 35° E 21:49:15 10° ENE
STARLINK-1345 3.6 21:47:21 36° E 21:47:21 36° E 21:49:36 10° ENE
STARLINK-1355 3.6 21:47:39 36° E 21:47:39 36° E 21:49:55 10° ENE
Cosmos 1455 Rocket 3.3 21:42:55 10° NNW 21:47:12 63° W 21:49:41 24° S
STARLINK-1321 3.6 21:47:59 36° E 21:47:59 36° E 21:50:15 10° ENE
STARLINK-1358 3.5 21:48:21 37° E 21:48:21 37° E 21:50:38 10° ENE
STARLINK-1332 3.5 21:48:39 37° E 21:48:39 37° E 21:50:56 10° ENE
STARLINK-1348 3.5 21:48:58 37° E 21:48:58 37° E 21:51:16 10° ENE
STARLINK-1199 4.2 21:44:25 10° NW 21:48:29 53° NNE 21:51:27 17° E
STARLINK-1330 3.5 21:49:18 38° ESE 21:49:18 38° ESE 21:51:37 10° ENE
STARLINK-1363 3.5 21:49:36 38° ESE 21:49:36 38° ESE 21:51:56 10° ENE
Meteor 2-10 4.3 21:44:08 10° N 21:49:03 50° ENE 21:51:31 27° SE
STARLINK-1337 3.5 21:49:58 38° ESE 21:49:58 38° ESE 21:52:18 10° ENE
STARLINK-1342 3.4 21:50:17 39° ESE 21:50:17 39° ESE 21:52:39 10° ENE
STARLINK-1364 3.4 21:50:37 40° ESE 21:50:37 40° ESE 21:52:59 10° ENE
STARLINK-1368 3.8 21:48:46 29° S 21:50:15 41° SE 21:53:59 10° ENE
STARLINK-1376 3.4 21:50:56 40° ESE 21:50:56 40° ESE 21:53:19 10° ENE
STARLINK-1360 3.4 21:51:15 41° ESE 21:51:15 41° ESE 21:53:39 10° ENE
Cosmos 1953 3.1 21:46:56 10° N 21:50:42 39° ENE 21:51:59 30° ESE
Cosmos 2263 4.3 21:45:16 10° SSW 21:50:51 76° WNW 21:56:30 10° NNE
STARLINK-1361 3.4 21:51:36 41° ESE 21:51:36 41° ESE 21:54:00 10° ENE
STARLINK-1367 3.3 21:51:50 43° ESE 21:51:50 43° ESE 21:54:20 10° ENE
STARLINK-1366 3.3 21:52:13 42° ESE 21:52:13 42° ESE 21:54:41 10° ENE
CENTAUR R/B 3.3 21:44:00 10° NW 21:52:05 71° WSW 21:57:56 23° SSE
SPOT 5 3.5 21:48:42 21° S 21:52:14 59° W 21:57:33 10° NNW
S3M 4.2 21:46:45 10° N 21:52:53 60° ENE 21:56:24 26° SSE
STARLINK-1210 4.1 21:49:24 10° NW 21:53:29 56° NNE 21:56:14 19° E
STARLINK-52 3.6 21:50:33 10° WSW 21:53:44 57° NNW 21:56:54 10° NE
Cosmos 1503 Rocket 4.0 21:48:38 10° NNW 21:53:59 89° ENE 21:56:49 29° SSE
STARLINK-1369 3.7 21:52:48 28° SSW 21:54:26 45° SE 21:58:14 10° ENE
Cosmos 2026 Rocket 4.3 21:48:44 12° SSW 21:54:41 69° W 22:01:04 10° N
Cosmos 1271 Rocket 2.7 21:56:18 29° SSW 21:58:11 84° W 22:02:10 10° N
STARLINK-1219 4.0 21:54:24 10° NW 21:58:30 60° NNE 22:01:02 22° E
STARLINK-1372 3.6 21:56:48 26° SSW 21:58:40 48° SE 22:02:29 10° ENE
ATLAS 3B R/B 2.8 21:52:42 10° NW 21:59:31 74° NE 22:04:04 24° SE
SL-4 R/B 3.0 21:55:06 10° W 21:59:49 58° NNW 22:04:38 10° ENE
Terra 2.1 21:58:22 26° S 22:00:56 63° WSW 22:05:41 10° NNW
Cosmos 2297 Rocket 4.2 21:57:12 10° N 22:01:14 19° NE 22:05:16 10° E
STARLINK-1378 3.5 21:59:49 29° SSW 22:01:27 50° SE 22:05:14 10° ENE
STARLINK-1211 3.9 21:59:22 10° NW 22:03:29 63° NNE 22:05:49 24° ESE
BREEZE-M DEB (TANK) 3.2 21:55:44 10° SW 22:03:55 38° SSE 22:07:09 10° E
Cosmos 1553 Rocket 4.0 21:57:41 10° N 22:03:59 86° W 22:07:36 27° S
Cosmos 1943 Rocket 3.8 21:59:01 10° WSW 22:04:02 34° NW 22:09:09 10° NNE
Meteor 2-8 Rocket 4.5 21:58:15 10° N 22:04:25 75° E 22:07:46 29° SSE
OE (NEXTSAT) 4.3 22:01:00 10° W 22:04:30 87° N 22:06:35 23° E
STARLINK-1379 3.5 22:03:11 30° SSW 22:04:47 53° SE 22:08:34 10° ENE
Aureole 3 4.1 22:03:59 10° NNE 22:06:35 25° ENE 22:06:42 25° E
FALCON 9 DEB 3.4 22:03:33 10° WSW 22:06:58 70° NNW 22:10:24 10° NE
STARLINK-1329 3.4 22:06:17 29° SSW 22:08:02 56° SE 22:11:51 10° ENE
Cosmos 1174 3.3 22:06:48 34° SW 22:08:06 85° WNW 22:11:54 10° NNE
Cosmos 1833 4.4 22:02:53 10° NNW 22:08:28 63° WSW 22:11:17 29° S
STARLINK-1245 3.8 22:04:20 10° WNW 22:08:29 67° NNE 22:10:36 27° ESE
Cosmos 1758 3.6 22:04:50 10° NNW 22:08:52 65° W 22:10:28 34° SSW
ATLAS CENTAUR R/B 1.7 22:05:07 10° SW 22:09:29 69° NW 22:13:37 10° NNE
Cosmos 1707 2.7 22:08:17 37° SSW 22:09:44 84° W 22:13:38 10° N
STARLINK-1235 3.9 22:07:12 10° WNW 22:10:14 34° SW 22:10:14 34° SW
SeaSat 1 3.5 22:06:23 10° NE 22:10:31 26° ESE 22:11:04 26° ESE
COSMOS 2487 2.3 22:09:40 10° NNW 22:13:09 87° ENE 22:13:45 59° SSE
STARLINK-1362 3.4 22:11:07 24° SW 22:13:19 62° SE 22:17:12 10° ENE
STARLINK-1233 3.7 22:09:18 10° WNW 22:13:26 72° NNE 22:15:21 30° ESE
Cosmos 1354 Rocket 4.1 22:10:32 10° NNW 22:15:49 68° WSW 22:18:14 32° S
STARLINK-1373 3.3 22:15:16 22° SW 22:17:38 67° SE 22:21:33 10° ENE
Cosmos 1536 Rocket 3.5 22:16:15 34° SSW 22:18:08 80° W 22:22:32 10° N
STARLINK-1204 3.7 22:14:16 10° WNW 22:18:26 77° NNE 22:20:08 34° ESE
EO 1 Del DPAF 3.5 22:15:45 10° NNE 22:19:25 47° E 22:19:51 45° ESE
STARLINK-1390 3.3 22:18:23 25° SW 22:20:29 70° SE 22:24:21 10° ENE
NOSS 3-4 (A) 3.7 22:14:40 10° SW 22:20:35 69° NW 22:26:57 10° NE
NOSS 3-4 (C) 3.7 22:14:45 10° SW 22:20:41 69° NW 22:27:04 10° NE
STARLINK-1238 3.6 22:19:15 10° WNW 22:23:25 82° NNE 22:24:55 38° ESE
Cosmos 1656 Rocket 4.2 22:19:31 10° SW 22:25:03 58° WNW 22:30:33 10° NNE
STARLINK-1365 3.3 22:22:30 15° SW 22:25:43 78° SE 22:29:41 10° ENE
Meteor 1-16 Rocket 4.1 22:20:24 10° N 22:25:52 78° ENE 22:28:05 37° SSE
Cosmos 2266 Rocket 3.9 22:24:05 32° S 22:27:02 72° E 22:33:04 10° NNE
Cosmos 2084 3.4 22:26:11 38° SSW 22:27:45 68° SE 22:32:12 10° NE
STARLINK-1201 3.5 22:24:14 10° WNW 22:28:24 87° NNE 22:29:42 43° ESE
Cosmos 1655 Rocket 4.0 22:25:20 26° SSW 22:29:03 83° W 22:35:23 10° N
STARLINK-1206 3.5 22:29:13 10° WNW 22:33:22 87° SSW 22:34:29 48° SE
Cosmos 2369 Rocket 4.1 22:31:09 10° WSW 22:36:00 28° NW 22:40:51 10° N
STARLINK-1205 3.5 22:34:11 10° WNW 22:38:20 82° SW 22:39:15 53° SE
Cosmos 2227 Rocket 3.7 22:34:20 10° N 22:39:16 29° NE 22:43:18 14° ESE
STARLINK-1338 3.3 22:37:52 19° WSW 22:40:27 85° NNW 22:44:15 10° ENE
STARLINK-1218 3.5 22:39:12 10° WNW 22:43:20 76° SW 22:44:04 58° SSE
Spot 4 3.8 22:42:23 43° SSE 22:44:00 88° ENE 22:48:52 10° NNW
Cosmos 2292 Rocket 2.7 22:44:12 76° WSW 22:44:21 80° W 22:47:24 10° N
STARLINK-1254 3.5 22:44:10 10° WNW 22:48:18 70° SW 22:48:49 61° SSE
ATLAS 2AS CENTAUR R/B 3.7 22:41:09 10° WSW 22:48:58 55° NW 22:56:42 10° NE
Cosmos 1908 3.1 22:45:28 10° N 22:49:18 77° E 22:49:45 65° SE
Cosmos 2058 Rocket 4.0 22:45:30 10° N 22:49:39 37° ENE 22:50:50 31° ESE
Cosmos 883 Rocket 4.4 22:43:30 10° N 22:49:40 85° W 22:52:19 36° S
Cosmos 2098 Rocket 4.4 22:45:55 32° S 22:49:42 76° E 22:57:06 10° NNE
STARLINK-1371 3.5 22:46:30 13° WSW 22:49:53 75° NNW 22:53:45 10° ENE
Cosmos 1606 Rocket 3.5 22:46:19 10° N 22:50:40 73° E 22:51:37 52° SSE
STARLINK-1231 3.5 22:49:08 10° WNW 22:53:15 65° SW 22:53:35 62° S
Meteor 2-5 Rocket 3.9 22:51:49 39° SSE 22:53:40 57° E 22:59:12 10° NNE
STARLINK-1341 3.6 22:50:24 12° WSW 22:53:55 71° NNW 22:57:46 10° ENE
ALOS 2 2.9 22:53:44 43° ESE 22:54:52 57° ENE 22:59:11 10° N
KORONAS-FOTON 3.6 22:56:12 68° S 22:56:40 89° E 23:00:33 10° N
STARLINK-1374 3.7 22:54:14 11° WSW 22:57:50 67° NNW 23:01:40 10° NE
STARLINK-1232 3.6 22:54:10 10° WNW 22:58:16 60° SW 22:58:25 59° SSW
CZ-4C R/B 3.3 22:59:36 23° ESE 22:59:38 23° ESE 23:03:57 10° ENE
STARLINK-1224 4.4 22:56:26 10° NW 23:00:29 50° NNE 23:03:14 19° E
STARLINK-1339 3.8 22:58:03 10° WSW 23:01:49 63° NNW 23:05:38 10° NE
STARLINK-1208 3.7 22:59:08 10° WNW 23:03:09 55° SW 23:03:09 55° SW
Cosmos 1300 3.6 23:01:02 10° N 23:04:35 36° ENE 23:05:03 35° E
STARLINK-1225 4.3 23:01:24 10° NW 23:05:28 52° NNE 23:08:01 21° E
STARLINK-1271 3.9 23:04:09 10° WNW 23:07:58 50° SW 23:07:58 50° SW
STARLINK-1377 4.0 23:04:21 10° WSW 23:08:15 59° NNW 23:12:09 10° NE
Nimbus 7 Rocket 4.4 23:04:15 10° NNE 23:10:21 81° ESE 23:12:49 38° S
STARLINK-1230 4.2 23:06:22 10° NW 23:10:27 55° NNE 23:12:46 24° E
Cosmos 1726 3.7 23:08:03 10° NW 23:11:08 25° W 23:11:43 24° WSW
COSMOS 2455 3.9 23:05:43 10° WSW 23:11:25 44° NW 23:17:11 10° NNE
Cosmos 1674 3.1 23:11:24 48° WSW 23:11:58 53° WNW 23:15:43 10° N
STARLINK-1353 4.1 23:08:31 10° WSW 23:12:23 56° NNW 23:16:17 10° NE
Cosmos 1340 Rocket 4.3 23:09:31 10° NNW 23:12:59 27° W 23:13:48 25° WSW
STARLINK-1154 4.1 23:09:08 10° WNW 23:12:44 45° WSW 23:12:44 45° WSW
STARLINK-1320 4.4 23:11:24 10° W 23:14:20 37° NNW 23:17:17 10° NE
STARLINK-1375 4.1 23:10:48 10° WSW 23:14:36 54° NNW 23:18:24 10° NE
STARLINK-1322 4.4 23:11:42 10° W 23:14:38 37° NNW 23:17:35 10° NE
STARLINK-1324 4.4 23:12:05 10° W 23:15:00 37° NNW 23:17:57 10° NE
Cosmos 1777 Rocket 4.3 23:10:02 10° NNW 23:15:10 56° WSW 23:16:35 42° SSW
STARLINK-1294 4.4 23:12:25 10° W 23:15:18 37° NNW 23:18:15 10° NE
STARLINK-1243 4.1 23:11:22 10° NW 23:15:28 58° NNE 23:17:35 26° E
STARLINK-1261 4.4 23:12:44 10° W 23:15:41 36° NNW 23:18:37 10° NE
STARLINK-1325 4.4 23:13:05 10° W 23:16:01 36° NNW 23:18:58 10° NE
STARLINK-1333 4.4 23:13:27 10° W 23:16:23 36° NNW 23:19:18 10° NE
STARLINK-1334 4.4 23:13:47 10° W 23:16:43 36° NNW 23:19:38 10° NE
STARLINK-1326 4.5 23:14:08 10° W 23:17:04 36° NNW 23:19:59 10° NE
STARLINK-1323 4.5 23:14:28 10° W 23:17:23 36° NNW 23:20:19 10° NE
Meteor 2-14 Rocket 4.5 23:15:15 40° SSE 23:17:31 68° E 23:23:37 10° NNE
STARLINK-1349 4.5 23:14:47 10° W 23:17:43 36° NNW 23:20:38 10° NE
Cosmos 2228 3.2 23:13:33 10° NNW 23:17:44 59° W 23:18:24 51° SW
STARLINK-1336 4.5 23:15:08 10° W 23:18:03 35° NNW 23:20:59 10° NE
STARLINK-1197 4.3 23:14:08 10° WNW 23:17:30 40° WSW 23:17:30 40° WSW
STARLINK-1331 4.5 23:15:30 10° W 23:18:24 35° NNW 23:21:20 10° NE
Thor Agena Rocket 4.4 23:13:30 10° N 23:18:32 45° WNW 23:21:25 23° SW
STARLINK-1344 4.5 23:15:49 10° W 23:18:44 35° NNW 23:21:39 10° NE
Cosmos 921 Rocket 2.9 23:18:04 60° SSW 23:18:49 89° ESE 23:23:14 10° NNE
STARLINK-1343 4.5 23:16:10 10° W 23:19:04 35° NNW 23:21:59 10° NE
STARLINK-1236 4.0 23:16:20 10° NW 23:20:27 62° NNE 23:22:21 30° E
STARLINK-1350 4.3 23:16:53 10° W 23:20:44 51° NNW 23:24:35 10° NE
Cosmos 220 Rocket 3.9 23:20:04 59° SSW 23:20:54 87° ESE 23:25:23 10° NNE
Cosmos 1437 3.8 23:22:12 35° NE 23:22:12 35° NE 23:24:19 10° NNE
RESURS DK-1 3.5 23:20:56 24° WSW 23:22:54 39° NW 23:26:49 10° NNE
STARLINK-1198 4.5 23:19:10 10° WNW 23:22:18 36° WSW 23:22:18 36° WSW
Timation 2 Rocket 4.1 23:17:13 10° NW 23:23:20 57° WSW 23:25:18 40° SSW
Lacrosse 4 Rocket 3.1 23:20:52 10° NNW 23:24:41 30° NE 23:26:58 18° E
STARLINK-1352 4.4 23:21:07 10° W 23:24:57 49° NNW 23:28:49 10° NE
Cosmos 1980 Rocket 4.1 23:25:34 14° ESE 23:26:40 15° E 23:29:41 10° ENE
Cosmos 1953 4.4 23:24:10 10° NW 23:26:46 17° W 23:27:41 16° WSW
BREEZE-M R/B 3.7 23:17:46 10° WSW 23:26:47 81° SSE 23:30:57 10° ENE
Okean 1-7 Rocket 3.5 23:25:56 59° S 23:26:48 85° E 23:31:22 10° N
STARLINK-1368 4.5 23:25:23 10° W 23:29:12 46° NNW 23:33:02 10° NE
STARLINK-1269 3.8 23:26:17 10° WNW 23:30:26 70° NNE 23:31:54 38° ESE
USA 215 3.5 23:27:41 10° ESE 23:34:09 67° NNE 23:40:39 10° NW
Cosmos 1726 Rocket 4.0 23:30:04 10° NNW 23:34:15 48° W 23:34:55 44° WSW
Cosmos 1892 Rocket 3.7 23:34:23 50° SW 23:35:16 64° W 23:39:37 10° N
STARLINK-1200 3.7 23:31:16 10° WNW 23:35:25 75° NNE 23:36:41 43° ESE
SL-4 R/B 3.8 23:37:22 13° NW 23:37:22 13° NW 23:37:41 10° NW
Meteor 1-24 Rocket 3.6 23:36:46 44° SSW 23:38:32 81° W 23:44:07 10° N
Helios 1A 2.8 23:38:21 65° SSE 23:38:56 88° E 23:43:08 10° NNW
ATLAS 5 CENTAUR R/B 3.7 23:37:10 10° W 23:39:38 18° NW 23:41:19 10° N
SL-4 R/B 3.7 23:35:35 10° WNW 23:40:11 42° N 23:44:45 10° ENE
STARLINK-1192 3.6 23:36:14 10° WNW 23:40:24 80° NNE 23:41:28 48° ESE
Cosmos 1455 4.1 23:37:52 10° NNE 23:40:42 20° ENE 23:41:41 18° E
Cosmos 1626 2.2 23:42:49 62° W 23:42:59 63° W 23:46:41 10° N
SJ 16-02 1.6 23:39:29 10° NNW 23:43:54 61° ENE 23:44:59 45° ESE
STARLINK-1244 3.5 23:41:12 10° WNW 23:45:22 85° NNE 23:46:13 55° ESE
Cosmos 2297 Rocket 2.1 23:40:23 10° NNW 23:46:04 87° WSW 23:48:02 43° SSE
SeaSat 1 3.2 23:43:28 10° NNE 23:48:13 49° NW 23:50:50 25° WSW
Cosmos 2219 3.2 23:42:42 10° NNW 23:48:21 70° WSW 23:50:00 46° S
ATLAS CENTAUR R/B 4.3 23:46:53 10° WNW 23:49:05 14° NNW 23:51:12 10° N
ATLAS 3B R/B 3.9 23:44:10 10° WNW 23:49:39 26° WSW 23:51:18 24° SW
Cosmos 1656 3.6 23:48:16 45° S 23:50:01 75° ESE 23:55:36 10° NNE
STARLINK-1138 3.5 23:46:10 10° WNW 23:50:20 89° SW 23:51:00 62° ESE
Cosmos 468 Rocket 4.1 23:52:35 47° SSE 23:53:43 59° ESE 23:58:46 10° NNE
STARLINK-1143 3.4 23:51:10 10° WNW 23:55:20 84° SSW 23:55:48 69° SE
STARLINK-43 3.8 23:56:42 50° E 23:56:42 50° E 23:59:37 10° ENE
